{"data":{"norad_id":36415,"intl_designator":"2010-009C","name":"YAOGAN-9 01C","alt_names":[],"object_type":"PAYLOAD","status":"ACTIVE","operator":null,"country":"PRC","launch_date":"2010-03-05","launch_site_code":"JSC","launch_vehicle":null,"mission":null,"orbit_class":"UNKNOWN","rcs_meters":2.656,"size_class":null,"mass_kg":null,"dimensions":null,"purposes":[],"wikipedia_slug":null,"has_3d_model":false,"image_url":null,"decayed_at":null,"tle_current":{"epoch":"2026-05-25T03:24:08.172864Z","epoch_age_seconds":66819,"freshness":"FRESH","line1":"1 36415U 10009C   26145.14176126  .00000067  00000+0  11133-3 0  9999","line2":"2 36415  63.3669  58.0052 0537125  21.0550 341.1702 13.45706360796803","mean_motion":13.4570636,"eccentricity":0.0537125,"inclination_deg":63.3669,"raan_deg":58.0052,"arg_perigee_deg":21.055,"mean_anomaly_deg":341.1702,"bstar":0.00011133,"rev_number":79680,"period_min":107.00699965481,"perigee_km":687.06757246856,"apogee_km":1489.1278355466,"semimajor_km":7466.2347040076,"source":"CELESTRAK","updated_at":"2026-05-25T13:37:55.194179Z"}}}